Regional Weather Roundup
Issued by NWS Columbia, SC

Current Version | Previous Version | Graphics & Text | Print | Product List | Glossary On
Versions: 1 2 3 4 5 6 7 8 9 10 11 12 13 14 15 16 17 18 19 20 21 22 23 24 25 26 27 28 29 30 31 32 33 34 35 36 37 38 39 40 41 42 43 44 45 46 47 48 49 50
000
ASUS42 KCAE 270310
RWRCAE
REGIONAL WEATHER ROUNDUP
NATIONAL WEATHER SERVICE COLUMBIA SC
1100 PM EDT MON OCT 26 2020

NOTE: "FAIR" INDICATES FEW OR NO CLOUDS BELOW 12,000 FEET WITH NO
SIGNIFICANT WEATHER AND/OR OBSTRUCTIONS TO VISIBILITY.

NOT ALL STATIONS ARE QUALITY CONTROLLED BY THE NATIONAL
WEATHER SERVICE. USE DATA WITH CAUTION...ESPECIALLY
DEWPOINT OBSERVATIONS.

SCZ001>056-GAZ040-063>065-077-270400-
...UPSTATE SOUTH CAROLINA...

CITY           SKY/WX    TMP DP  RH WIND       PRES   REMARKS
ANDERSON       CLOUDY    64  61  90 CALM      30.15S
LIBERTY        CLEAR     56  56 100 CALM      30.16R
SPARTANBURG    CLEAR     59  57  94 CALM      30.16S
CLEMSON        CLEAR     59  58  96 CALM      30.17R
GREENVILLE     CLEAR     63  59  87 CALM      30.17R
GREENWOOD      CLOUDY    60  60 100 CALM      30.17S
GREER          CLEAR     59  59 100 CALM      30.17R FOG
ROCK HILL      CLEAR     59  58  96 SW3       30.17R
CHESTER        CLEAR     59  59 100 CALM      30.18R
LAURENS        CLEAR     59  59 100 CALM      30.17R


...CENTRAL SOUTH CAROLINA...

CITY           SKY/WX    TMP DP  RH WIND       PRES   REMARKS
COLUMBIA APT   CLEAR     60  57  89 CALM      30.15R
COLUMBIA OWENS CLEAR     62  60  93 CALM      30.17R
MCENTIRE ANGB  CLEAR     58  58 100 CALM      30.15R
ORANGEBURG     CLEAR     62  62 100 CALM      30.15R
SUMTER SHAW    CLEAR     60  58  94 CALM      30.15R
NEWBERRY       CLEAR     59  57  94 CALM      30.19S FOG
BARNWELL       CLOUDY    64  63  94 CALM      30.15R
MANNING        FAIR      57  57 100 CALM      30.15S
CAMDEN         FAIR      57  57 100 CALM      30.16S
LANCASTER      MOCLDY    59  57  94 CALM      30.17R FOG
WINNSBORO      PTCLDY    59  59 100 CALM      30.16R


...EASTERN AND COASTAL SOUTH CAROLINA...

CITY           SKY/WX    TMP DP  RH WIND       PRES   REMARKS
MYRTLE BEACH   CLEAR     64  63  96 CALM      30.15S
N MYRTLE BCH   CLEAR     62  62 100 CALM      30.14S FOG
CONWAY         FAIR      59  59 100 CALM      30.15S
MARION         FAIR      59  59 100 CALM      30.15R
HARTSVILLE       N/A     55  55 100 CALM      30.16R
FLORENCE       CLEAR     58  56  93 CALM      30.15R FOG
DARLINGTON     CLEAR     57  57 100 SW5       30.16R
CHARLESTON APT PTCLDY    65  62  90 E6        30.14S
MOUNT PLEASANT MOCLDY    64  64 100 CALM      30.14S
WALTERBORO     CLEAR     61  61 100 CALM      30.16R
BEAUFORT       CLOUDY    69  66  90 CALM      30.15R
HILTON HEAD    CLOUDY    70  66  88 CALM      30.15S


...EASTERN GEORGIA...

CITY           SKY/WX    TMP DP  RH WIND       PRES   REMARKS
AUGUSTA BUSH F CLOUDY    65  63  93 CALM      30.15R
AUGUSTA DANIEL CLOUDY    67  63  87 NW3       30.16R
THOMSON        CLOUDY    63 N/A N/A CALM      30.16R
WASHINGTON     FAIR      63  63 100 CALM      30.16S
CLAXTON        CLOUDY    69  66  89 CALM      30.15R
SYLVANIA       CLOUDY    68  65  88 SE5       30.16S
STATESBORO     CLOUDY    67  63  87 CALM      30.15S
SAVANNAH       CLOUDY    70  65  84 E7        30.15R


...SOUTHERN NORTH CAROLINA...

CITY           SKY/WX    TMP DP  RH WIND       PRES   REMARKS
CHARLOTTE      PTCLDY    60  58  92 S3        30.17R
MONROE         CLEAR     58  58 100 CALM      30.16R FOG
WADESBORO      CLEAR     57  55  95 CALM      30.16R
ROCKINGHAM     CLEAR     60  59  95 CALM      30.15R
RUTHERFORDTON  CLEAR     57  57 100 CALM      30.18R
ASHEVILLE      CLOUDY    61  58  90 CALM      30.20R

$$




USA.gov is the U.S. government's official web portal to all federal, state and local government web resources and services.